カタログに戻る

STARLINK-35947

運用中通信VLEO
NORAD 66883·PAYLOAD·🇺🇸 United States

打ち上げ Dec 4, 2025 から Vandenberg Space Force Base

Loading…

次のパス (今後24時間)

TLE

最新Source: CelesTrak SupGP

元期: Sep 14, 2026, 21:25 UTC

1 66883C 25283F   26257.89284722  .00036418  00000+0  10758-2 0  2576
2 66883  53.1584 221.6920 0001370  90.7139 264.2562 15.34378071    18

AllMySatでSTARLINK-35947をリアルタイム追跡

Download on the App Store